{"data":{"norad_id":63966,"epoch":"2026-09-20T23:07:32.651904Z","epoch_age_seconds":107035,"freshness":"FRESH","line1":"1 63966U 25099Q   26263.96357236  .00012548  00000+0  46462-3 0  9999","line2":"2 63966  43.0005 153.1765 0001244 276.2080  83.8630 15.27587878 77200","mean_motion":15.27587878,"eccentricity":0.0001244,"inclination_deg":43.0005,"raan_deg":153.1765,"arg_perigee_deg":276.208,"mean_anomaly_deg":83.863,"bstar":0.00046462,"rev_number":7720,"period_min":94.266262565878,"perigee_km":482.17197795912,"apogee_km":483.87903519075,"semimajor_km":6861.1625065749,"source":"CELESTRAK","updated_at":"2026-09-21T09:00:35.176652Z"}}